Regional Weather Roundup
Issued by NWS

Home | Current Version | Previous Version | Graphics & Text | Print | Product List | Glossary On
Versions: 1 2 3 4 5 6 7 8 9 10 11 12 13 14 15 16 17 18 19 20 21 22 23 24 25 26 27 28 29 30 31 32 33 34 35 36 37 38 39 40 41 42 43 44 45 46 47 48 49 50
000
ASUS43 KBIS 230110
RWRND

NORTH DAKOTA REGIONAL WEATHER ROUNDUP
NATIONAL WEATHER SERVICE BISMARCK ND
800 PM CDT WED OCT 22 2014

NOTE: "FAIR" INDICATES FEW OR NO CLOUDS BELOW 12,000 FEET WITH NO
SIGNIFICANT WEATHER AND/OR OBSTRUCTIONS TO VISIBILITY.


NDZ001>003-009>011-017-230200-
NORTHWEST NORTH DAKOTA

CITY           SKY/WX    TMP DP  RH WIND       PRES   REMARKS
WILLISTON      CLEAR     53  34  48 W8        29.84R
MINOT          CLOUDY    57  42  57 SW8       29.81R
MINOT AFB      CLOUDY    55  45  67 SW7       29.80R
$$

NDZ018>021-031>035-040>046-230200-
SOUTHWEST NORTH DAKOTA

CITY           SKY/WX    TMP DP  RH WIND       PRES   REMARKS
BISMARCK       CLEAR     55  37  50 SW6       29.89R
DICKINSON      CLEAR     46  32  58 W9        29.89R
GARRISON         N/A     53  40  61 W6        29.85R
HETTINGER ARPT CLEAR     43  29  57 CALM      29.95R
$$

NDZ004>008-012>016-024-026-027-054-230200-
NORTHEAST NORTH DAKOTA

CITY           SKY/WX    TMP DP  RH WIND       PRES   REMARKS
GRAND FORKS    CLOUDY    54  52  93 S7        29.84R
GRND FRKS AFB  CLOUDY    53  53  99 SW6       29.84S
DEVILS LAKE    MOCLDY    54  45  71 SW7       29.80R
$$

NDZ022-023-025-028>030-036>039-047>053-230200-
SOUTHEAST NORTH DAKOTA

CITY           SKY/WX    TMP DP  RH WIND       PRES   REMARKS
FARGO          CLOUDY    56  53  90 SW14      29.89R
JAMESTOWN      PTCLDY    52  48  86 S9        29.86R
$$




USA.gov is the U.S. government's official web portal to all federal, state and local government web resources and services.